Location: Manieq
(50.8476°N, 17.4247°E)
Time: 18:25:45
(UTC+01:00)

ISS - Visible Passes

Search period start: 06 December 2021 00:00
Search period end: 16 December 2021 00:00
Orbit: 417 x 422 km, 51.6° (Epoch: 06 December)

Date Brightness Start Highest point End Pass type
(mag) Time Alt. Az. Time Alt. Az. Time Alt. Az.
06 Dec -3.2 16:26:03 10° WNW 16:29:26 63° SSW 16:32:47 10° ESE visible
06 Dec -1.0 18:03:28 10° W 18:05:47 17° SW 18:08:06 10° S visible
07 Dec -1.4 17:15:44 10° W 17:18:34 24° SW 17:21:23 10° SSE visible
08 Dec -1.9 16:28:10 10° W 16:31:17 34° SSW 16:34:23 10° SE visible
09 Dec -0.4 17:18:53 10° WSW 17:20:08 12° SW 17:21:23 10° SSW visible
10 Dec -0.6 16:30:38 10° W 16:32:56 17° SW 16:35:13 10° S visible
